Wind_Speed
23 20 21 25 26 31 34 34 32 31 28 27 29 27 34 23 27 27 28 24 24 25 23 25 25 23 18 19 19 23 23 23 22 22 23 23 26 27 28 30 31 33 36
18 16 20 28 31 32 30 28 24 27 23 20 27 28 26 28 28 30 27 29 24 21 20 22 27 29 23 19 18 22 25 25 24 24 24 25 26 28 27 27 30 34 35
10 14 23 35 32 29 27 20 33 32 24 19 28 35 30 28 28 28 19 23 23 23 24 24 25 24 25 23 19 20 19 14 19 23 26 27 26 28 30 29 28 30 31
11 15 33 38 36 37 39 39 38 31 29 35 34 34 30 25 28 30 30 29 28 28 28 27 29 26 24 25 21 19 18 21 21 22 23 26 29 30 30 30 33 33 32
16 31 37 34 35 36 34 29 34 39 36 35 40 28 30 24 28 30 28 26 31 31 31 28 28 27 22 22 22 22 26 27 28 26 26 26 27 30 31 33 34 34 35
15 33 33 35 39 35 28 31 25 28 42 31 36 29 23 31 25 29 30 30 26 30 31 27 27 27 23 24 26 30 31 32 32 32 29 29 29 30 34 37 37 38 38
21 30 35 36 37 28 24 29 31 23 26 23 31 24 31 39 32 28 29 30 27 29 26 28 30 33 24 33 36 38 39 37 35 34 33 33 34 37 39 40 42 40 39
35 35 35 36 36 37 41 33 35 35 32 26 30 32 33 31 36 36 31 30 31 33 29 29 34 37 42 42 44 44 38 34 32 30 32 35 36 38 40 43 46 46 45
41 33 37 42 43 50 49 42 33 43 42 38 35 25 29 30 27 35 34 27 33 42 41 41 43 44 39 36 33 34 33 34 36 36 39 41 47 48 49 49 51 49 52
39 33 39 41 52 47 56 50 42 37 44 45 45 37 32 40 33 26 36 38 26 29 32 35 35 33 34 35 36 40 43 43 47 50 48 49 52 54 54 56 57 55 54
48 39 49 38 40 49 55 57 49 50 36 47 41 42 38 40 43 39 49 41 41 42 43 37 38 35 35 41 46 44 44 47 50 54 55 56 55 56 57 57 57 58 58
50 43 42 43 39 52 48 58 54 51 43 46 49 41 41 39 40 40 41 41 41 45 44 44 46 47 49 49 53 56 56 54 55 53 57 53 49 48 51 55 57 58 58
47 46 45 48 46 48 51 58 58 47 51 50 49 50 48 45 50 48 49 51 45 47 47 49 53 54 56 59 59 61 60 65 51 53 52 40 40 43 47 49 52 55 57
44 36 43 46 39 42 48 55 50 52 48 55 51 47 50 54 53 52 52 52 54 53 55 56 62 61 60 59 57 56 53 47 43 42 43 39 40 42 44 48 46 45 47
45 47 41 47 50 46 49 44 59 56 51 50 57 56 54 56 55 56 57 55 52 52 60 61 65 69 63 58 51 44 41 40 41 41 41 42 43 46 46 45 45 45 43
48 48 48 50 50 53 50 55 53 55 65 58 61 61 60 59 61 61 64 66 65 64 57 55 57 60 58 50 46 44 43 43 43 44 43 41 43 46 47 47 45 45 45
55 54 52 60 52 53 59 59 56 57 57 59 63 68 68 67 67 66 66 69 72 73 75 68 61 50 48 46 47 46 44 45 46 46 43 43 45 48 49 49 50 51 50
55 59 54 58 59 58 58 62 62 59 60 59 62 61 59 62 61 66 69 69 62 56 57 54 49 45 46 46 48 49 50 50 49 49 47 47 49 51 52 53 55 56 57
49 54 53 57 56 58 63 62 65 67 60 60 63 61 62 66 61 56 53 50 49 50 49 48 47 48 48 50 51 52 52 53 54 53 54 56 57 56 57 60 62 64 65
48 48 49 50 53 53 54 56 65 68 69 66 67 65 57 57 55 49 48 48 48 48 48 48 49 51 52 53 54 55 57 57 57 58 62 63 63 64 66 68 70 71 72
50 49 49 50 51 52 52 53 53 53 54 55 55 56 54 53 52 50 51 51 51 51 52 53 53 54 56 58 60 60 61 63 64 65 66 67 69 71 73 74 75 77 79
59 56 54 52 52 53 54 56 57 57 58 57 56 55 55 55 56 56 55 55 55 54 55 57 59 60 62 65 66 67 67 69 70 71 72 74 77 79 80 80 81 84 86
66 64 61 59 58 57 56 57 57 60 61 59 57 56 57 56 56 56 56 56 58 60 61 63 63 65 67 70 72 72 72 73 75 78 80 82 83 85 86 88 90 92 93
76 72 69 65 64 62 60 61 62 61 61 62 62 61 59 59 59 60 61 63 64 65 66 67 69 70 72 73 76 78 78 78 80 82 87 90 91 94 96 98 99 100 101
82 82 79 76 73 72 72 70 67 67 65 63 64 63 62 62 63 63 64 64 64 64 67 69 71 73 75 76 77 79 81 82 84 84 86 94 95 99 102 103 105 107 109
88 89 88 86 83 80 78 76 75 73 71 70 70 69 69 69 70 70 70 69 69 69 71 73 76 78 79 82 83 85 88 90 92 92 92 94 94 99 105 109 110 112 112
Wind_Direction
262 271 237 231 213 196 203 206 212 216 220 223 230 236 237 231 234 243 247 241 245 252 258 261 265 268 278 278 264 258 260 258 256 256 258 253 256 256 255 255 257 249 255
270 242 217 202 182 191 201 204 202 191 192 210 234 234 225 229 241 244 240 243 247 236 247 257 263 270 273 279 267 259 258 260 263 258 256 255 254 256 252 253 252 251 250
222 208 188 173 173 180 178 184 191 182 182 203 215 234 241 235 241 240 234 231 235 243 249 264 263 271 268 271 276 270 263 270 274 269 265 267 264 263 261 259 255 252 253
170 179 163 161 165 179 177 198 199 188 209 221 216 231 241 239 234 238 233 245 247 247 251 259 262 261 263 264 268 258 246 270 277 270 268 266 264 265 266 266 265 264 262
162 153 152 173 170 174 164 206 203 196 208 222 226 236 224 242 238 236 242 243 247 253 262 262 267 266 258 263 267 266 255 271 276 268 265 266 269 267 264 264 264 262 260
138 168 174 177 183 182 181 200 214 221 224 219 230 238 236 221 239 246 249 258 258 264 259 262 266 271 262 266 272 279 273 272 274 273 268 266 271 276 278 281 272 263 261
142 162 172 177 177 172 199 203 219 227 218 225 237 233 243 233 249 257 267 271 263 267 263 255 250 249 250 282 286 285 281 272 266 266 267 270 271 269 270 276 272 264 260
160 163 182 199 183 189 184 220 216 202 205 225 244 226 252 249 257 259 249 253 245 253 246 251 271 272 282 283 280 280 274 270 270 267 268 272 273 275 276 275 271 269 266
173 173 181 194 200 198 204 195 221 214 200 232 236 249 238 244 240 244 240 263 257 247 254 263 266 266 268 268 267 265 263 267 266 269 271 273 281 283 280 279 279 273 270
190 191 179 200 214 201 203 218 213 213 221 231 227 239 244 239 241 228 228 233 244 248 263 267 277 280 285 284 281 280 283 282 271 278 280 280 281 281 279 278 276 270 270
188 204 205 207 216 216 213 216 220 219 232 230 242 248 256 235 248 259 249 267 267 274 278 280 288 283 284 288 289 287 287 287 284 282 278 279 283 284 283 277 271 270 265
202 214 214 217 217 214 220 221 227 231 234 231 240 243 246 256 262 267 268 273 275 276 283 283 281 282 285 289 289 289 289 286 285 281 283 280 280 282 279 272 264 263 261
218 224 232 225 222 224 222 221 226 238 237 240 246 243 252 256 258 266 269 273 271 278 284 279 282 284 279 281 286 286 284 282 276 283 277 274 278 278 279 276 272 270 270
218 233 239 231 237 231 229 229 233 236 243 244 251 252 255 257 260 265 267 268 273 276 280 283 282 282 286 287 284 282 280 273 270 271 273 275 277 276 275 274 274 273 272
230 230 242 238 233 239 239 243 235 237 244 252 247 256 260 255 258 262 264 267 272 275 275 279 281 281 279 283 279 272 271 272 272 271 272 277 276 274 271 268 269 270 270
231 232 243 239 244 246 248 246 244 244 240 250 250 254 258 257 258 263 263 266 273 273 275 276 278 273 271 272 269 269 269 272 273 274 277 280 276 274 272 272 270 270 270
237 245 243 241 244 247 248 246 245 248 251 254 257 255 257 259 260 261 265 268 267 268 268 276 272 268 266 263 265 266 271 274 275 274 275 275 275 275 272 272 273 275 276
246 246 251 248 247 245 250 250 251 253 258 260 261 260 259 263 263 268 266 267 266 266 268 266 264 265 264 264 266 269 274 274 276 277 277 275 274 274 275 277 279 281 283
244 249 249 250 253 253 257 254 251 253 255 256 257 262 261 264 264 259 258 259 261 263 263 263 263 264 266 267 269 271 273 274 275 277 278 278 277 278 280 282 285 286 287
241 242 244 247 250 252 254 252 250 254 253 256 257 261 258 257 255 255 258 260 261 262 262 262 263 265 267 270 271 271 274 275 276 280 280 280 281 281 283 285 288 289 290
241 244 245 247 248 248 248 249 249 250 251 252 252 252 253 253 252 255 259 259 260 261 262 262 263 267 269 272 271 272 273 273 274 278 280 280 282 283 285 287 288 290 291
246 247 246 248 250 252 253 252 253 255 255 254 252 253 254 256 257 257 258 258 259 262 263 263 263 266 268 270 272 271 273 274 276 279 280 281 282 283 284 285 286 287 288
248 249 248 249 251 254 255 255 253 253 253 253 253 253 254 255 256 257 257 259 261 262 263 264 265 266 267 269 271 273 275 276 276 277 279 281 282 283 283 284 284 284 286
249 249 250 250 252 253 255 256 256 254 252 252 252 252 253 254 256 258 260 260 261 261 262 263 264 265 267 269 271 273 274 273 272 274 278 281 283 283 284 285 283 283 285
250 250 249 250 252 252 253 255 257 257 256 256 256 255 254 254 255 256 257 258 259 261 263 264 266 266 267 269 270 271 273 274 274 274 274 278 281 281 283 284 285 286 286
249 249 250 251 251 252 252 254 256 257 257 256 257 258 258 258 258 259 260 261 262 263 264 265 265 266 267 268 269 270 271 271 272 272 272 272 275 280 283 284 284 284 285
Height
10725 10728 10731 10736 10741 10751 10759 10766 10773 10780 10785 10788 10789 10791 10792 10794 10796 10799 10801 10805 10807 10809 10811 10812 10813 10815 10816 10817 10818 10819 10821 10823 10825 10825 10826 10828 10829 10828 10828 10830 10832 10833 10833
10722 10721 10724 10730 10739 10751 10758 10765 10771 10776 10781 10784 10785 10785 10788 10790 10792 10795 10797 10801 10803 10805 10807 10808 10810 10812 10813 10813 10815 10816 10818 10820 10821 10821 10822 10824 10823 10823 10824 10825 10827 10827 10828
10719 10718 10721 10730 10742 10751 10759 10770 10768 10773 10776 10780 10780 10781 10784 10786 10788 10791 10794 10796 10798 10801 10804 10805 10807 10808 10809 10810 10810 10812 10815 10816 10816 10817 10818 10819 10819 10819 10820 10820 10821 10822 10822
10717 10718 10724 10732 10740 10748 10755 10757 10765 10771 10773 10772 10774 10776 10780 10781 10785 10788 10790 10793 10796 10798 10800 10801 10802 10804 10804 10805 10807 10808 10809 10810 10811 10812 10813 10813 10814 10815 10815 10816 10816 10817 10818
10716 10720 10728 10737 10742 10747 10749 10759 10761 10764 10766 10767 10770 10774 10776 10779 10781 10784 10787 10789 10791 10794 10796 10796 10798 10799 10800 10801 10802 10803 10805 10805 10805 10807 10808 10808 10809 10809 10809 10811 10811 10812 10812
10716 10722 10726 10733 10741 10746 10750 10755 10757 10760 10761 10763 10767 10770 10772 10775 10778 10780 10782 10784 10786 10788 10789 10791 10792 10794 10795 10796 10797 10798 10799 10800 10800 10800 10802 10803 10803 10803 10805 10805 10805 10806 10806
10717 10723 10729 10733 10739 10742 10749 10753 10754 10760 10760 10762 10764 10767 10770 10771 10773 10776 10777 10778 10779 10781 10783 10784 10786 10787 10788 10789 10790 10792 10793 10794 10794 10795 10795 10796 10797 10797 10797 10798 10798 10798 10798
10717 10722 10727 10733 10738 10740 10743 10745 10749 10753 10757 10760 10761 10764 10765 10766 10768 10770 10772 10773 10774 10775 10776 10777 10779 10781 10782 10782 10784 10786 10786 10787 10788 10788 10789 10790 10790 10791 10791 10791 10791 10791 10792
10716 10717 10723 10729 10732 10734 10736 10739 10743 10745 10748 10750 10755 10758 10760 10763 10763 10763 10764 10767 10767 10769 10771 10772 10774 10774 10776 10777 10777 10778 10779 10779 10780 10781 10782 10782 10782 10783 10782 10783 10783 10782 10783
10712 10716 10717 10723 10722 10728 10728 10730 10737 10740 10743 10744 10747 10749 10752 10755 10757 10757 10758 10760 10761 10762 10763 10764 10764 10765 10767 10769 10768 10769 10770 10770 10771 10771 10771 10771 10772 10771 10771 10771 10771 10772 10772
10709 10712 10716 10716 10720 10723 10727 10728 10729 10734 10736 10739 10741 10743 10745 10748 10749 10750 10751 10751 10752 10752 10754 10755 10756 10757 10758 10760 10760 10759 10759 10759 10760 10761 10760 10759 10758 10757 10758 10758 10759 10759 10759
10706 10706 10709 10710 10715 10718 10719 10722 10725 10727 10729 10732 10735 10736 10737 10739 10740 10741 10743 10744 10744 10746 10746 10747 10748 10749 10749 10750 10750 10750 10748 10746 10747 10747 10746 10745 10745 10746 10746 10745 10745 10746 10746
10701 10703 10705 10708 10708 10712 10714 10715 10717 10719 10722 10724 10726 10729 10729 10731 10734 10735 10735 10736 10736 10737 10737 10738 10738 10739 10740 10740 10741 10740 10739 10739 10735 10735 10735 10735 10735 10735 10735 10735 10734 10735 10735
10696 10698 10698 10701 10704 10706 10709 10711 10710 10713 10715 10715 10717 10719 10722 10724 10725 10726 10727 10727 10727 10728 10727 10727 10728 10730 10729 10729 10730 10728 10728 10727 10726 10726 10726 10724 10724 10724 10725 10724 10724 10725 10724
10693 10694 10695 10696 10697 10699 10701 10703 10705 10706 10708 10709 10710 10712 10714 10715 10716 10717 10718 10718 10719 10719 10719 10720 10718 10719 10719 10719 10719 10718 10718 10718 10717 10718 10717 10715 10714 10715 10715 10714 10715 10714 10714
10688 10689 10688 10689 10691 10692 10693 10696 10698 10699 10701 10702 10703 10703 10705 10706 10706 10707 10707 10708 10707 10709 10709 10710 10709 10709 10707 10707 10709 10708 10708 10707 10708 10708 10707 10705 10705 10705 10706 10705 10706 10705 10704
10680 10681 10682 10683 10682 10684 10686 10687 10688 10690 10691 10692 10693 10694 10695 10696 10696 10697 10697 10696 10699 10698 10699 10699 10699 10696 10696 10696 10698 10698 10697 10697 10697 10696 10696 10695 10695 10695 10695 10694 10694 10693 10693
10669 10670 10671 10671 10673 10674 10675 10676 10677 10679 10680 10680 10682 10683 10684 10685 10685 10685 10685 10686 10687 10685 10685 10686 10686 10685 10685 10685 10687 10686 10686 10685 10685 10684 10684 10683 10683 10684 10683 10681 10680 10679 10677
10657 10658 10659 10660 10661 10662 10663 10665 10666 10667 10668 10671 10672 10672 10672 10673 10672 10673 10674 10674 10674 10674 10675 10675 10675 10675 10674 10674 10675 10675 10674 10674 10672 10672 10671 10670 10670 10669 10668 10667 10665 10663 10661
10644 10646 10647 10648 10650 10651 10652 10652 10654 10656 10658 10659 10659 10660 10659 10660 10661 10661 10661 10662 10662 10663 10664 10664 10663 10663 10661 10661 10662 10663 10662 10660 10659 10658 10657 10655 10654 10653 10652 10650 10648 10645 10643
10632 10634 10636 10638 10639 10640 10640 10641 10642 10644 10645 10645 10646 10646 10647 10648 10648 10649 10649 10650 10651 10652 10652 10652 10651 10651 10649 10647 10648 10649 10649 10648 10647 10645 10643 10640 10638 10636 10634 10632 10629 10626 10623
10621 10622 10624 10625 10627 10627 10628 10629 10630 10631 10631 10631 10633 10634 10635 10636 10636 10637 10638 10638 10638 10639 10639 10639 10639 10638 10637 10635 10633 10633 10635 10634 10632 10630 10626 10624 10622 10619 10617 10613 10610 10607 10605
10609 10608 10609 10612 10614 10616 10616 10615 10616 10616 10617 10618 10620 10621 10622 10623 10624 10624 10624 10625 10625 10625 10625 10624 10624 10624 10623 10622 10619 10618 10617 10617 10616 10612 10609 10605 10603 10599 10597 10594 10590 10587 10586
10589 10594 10597 10598 10600 10601 10602 10601 10601 10601 10603 10604 10605 10606 10607 10608 10609 10609 10609 10610 10610 10610 10610 10609 10608 10608 10607 10607 10604 10603 10601 10600 10598 10598 10585 10581 10581 10575 10572 10568 10564 10560 10560
10573 10572 10576 10579 10582 10584 10585 10586 10587 10587 10588 10589 10590 10591 10592 10592 10592 10593 10594 10595 10594 10594 10594 10592 10591 10590 10589 10590 10589 10585 10582 10580 10579 10580 10579 10561 10558 10553 10548 10540 10534 10531 10529
10552 10554 10556 10560 10564 10566 10568 10569 10570 10571 10572 10573 10574 10574 10575 10575 10576 10576 10577 10578 10577 10577 10577 10575 10573 10571 10570 10570 10569 10565 10562 10560 10556 10557 10559 10555 10551 10534 10523 10513 10509 10502 10501